AAL7V TJSJ-KMCO

Flight info

Callsign AAL7V
Flight time N/A
Altitude 40000
Route ACONY3 SAPPO Y280 RUTOC/N0470F400 Y280 OCTAL MUNGI1
Aircraft A339/H-SADE1E2E3GHIJ3J5M1P2RWXY/LB2D1

Departure

Time N/A
Airport Luis Munoz Marin International Airport (TJSJ)

Arrival

Time 2026-04-26 14:13
Airport Orlando International Airport (KMCO)
Time Latitude Longitude Altitude Speed Heading
2026-04-26 13:10 25.00058 -76.76306 39965 ft 441 kts 296°
2026-04-26 13:10 25.03022 -76.82237 39964 ft 441 kts 296°
2026-04-26 13:11 25.05981 -76.88163 39965 ft 442 kts 296°
2026-04-26 13:11 25.08946 -76.94106 39966 ft 442 kts 296°
2026-04-26 13:12 25.11894 -77.00019 39976 ft 443 kts 296°
2026-04-26 13:12 25.14864 -77.05989 39970 ft 443 kts 296°
2026-04-26 13:13 25.17809 -77.11913 39964 ft 442 kts 296°
2026-04-26 13:13 25.20758 -77.17857 39952 ft 442 kts 296°
2026-04-26 13:14 25.23702 -77.23802 39948 ft 443 kts 296°
2026-04-26 13:14 25.26654 -77.29766 39959 ft 443 kts 296°
2026-04-26 13:15 25.29390 -77.35863 39952 ft 441 kts 292°
2026-04-26 13:15 25.31248 -77.41091 39969 ft 440 kts 288°
2026-04-26 13:16 25.33668 -77.48515 39952 ft 440 kts 288°
2026-04-26 13:16 25.35725 -77.54860 39946 ft 440 kts 288°
2026-04-26 13:17 25.38820 -77.64420 39963 ft 441 kts 289°
2026-04-26 13:18 25.41907 -77.73976 39966 ft 440 kts 288°
2026-04-26 13:19 25.44574 -77.83606 39978 ft 439 kts 285°
2026-04-26 13:19 25.46211 -77.90113 39981 ft 440 kts 284°
2026-04-26 13:20 25.47845 -77.96639 39983 ft 439 kts 284°
2026-04-26 13:20 25.49473 -78.03150 39964 ft 440 kts 285°
2026-04-26 13:21 25.51083 -78.09607 39964 ft 439 kts 285°
2026-04-26 13:21 25.52707 -78.16127 39971 ft 439 kts 285°
2026-04-26 13:22 25.54313 -78.22600 39972 ft 439 kts 285°
2026-04-26 13:22 25.55932 -78.29134 39986 ft 439 kts 285°
2026-04-26 13:23 25.57540 -78.35631 39977 ft 439 kts 285°
2026-04-26 13:23 25.59152 -78.42157 39975 ft 440 kts 285°
2026-04-26 13:24 25.60757 -78.48671 39972 ft 440 kts 285°
2026-04-26 13:24 25.62357 -78.55183 39978 ft 440 kts 285°
2026-04-26 13:25 25.63957 -78.61704 39979 ft 440 kts 285°
2026-04-26 13:25 25.65559 -78.68250 39975 ft 440 kts 285°
2026-04-26 13:26 25.67162 -78.74809 39981 ft 440 kts 285°
2026-04-26 13:26 25.68753 -78.81333 39963 ft 440 kts 285°
2026-04-26 13:27 25.70343 -78.87863 39964 ft 440 kts 285°
2026-04-26 13:27 25.71921 -78.94369 39957 ft 440 kts 285°
2026-04-26 13:28 25.73508 -79.00923 39964 ft 439 kts 285°
2026-04-26 13:28 25.75088 -79.07460 39950 ft 439 kts 285°
2026-04-26 13:29 25.76660 -79.13973 39957 ft 440 kts 285°
2026-04-26 13:29 25.78248 -79.20577 39958 ft 440 kts 286°
2026-04-26 13:30 25.79827 -79.27142 39961 ft 441 kts 285°
2026-04-26 13:30 25.81411 -79.33749 39955 ft 442 kts 285°
2026-04-26 13:31 25.82973 -79.40294 39575 ft 433 kts 286°
2026-04-26 13:31 25.83729 -79.43468 39304 ft 426 kts 286°
2026-04-26 13:31 25.84479 -79.46617 39028 ft 425 kts 286°
2026-04-26 13:32 25.85854 -79.52389 38502 ft 428 kts 286°
2026-04-26 13:32 25.86614 -79.55589 38209 ft 429 kts 286°
2026-04-26 13:32 25.87372 -79.58784 37794 ft 431 kts 286°
2026-04-26 13:32 25.88132 -79.61990 37287 ft 431 kts 286°
2026-04-26 13:33 25.88894 -79.65214 36788 ft 432 kts 286°
2026-04-26 13:33 25.89656 -79.68432 36291 ft 433 kts 286°
2026-04-26 13:33 25.90433 -79.71675 35786 ft 434 kts 287°
2026-04-26 13:33 25.91328 -79.74860 35292 ft 435 kts 290°
2026-04-26 13:34 25.92381 -79.77994 34800 ft 437 kts 293°
2026-04-26 13:34 25.93610 -79.81113 34294 ft 436 kts 296°
2026-04-26 13:34 25.94951 -79.84068 33808 ft 432 kts 299°
2026-04-26 13:34 25.95943 -79.86029 33487 ft 435 kts 301°
2026-04-26 13:35 25.98088 -79.89920 32876 ft 452 kts 303°
2026-04-26 13:35 25.99745 -79.92883 32415 ft 452 kts 303°
2026-04-26 13:35 26.01435 -79.95898 31954 ft 460 kts 303°
2026-04-26 13:35 26.03134 -79.98930 31493 ft 459 kts 303°
2026-04-26 13:36 26.04797 -80.01904 31041 ft 456 kts 303°
2026-04-26 13:36 26.06484 -80.04923 30580 ft 452 kts 303°
2026-04-26 13:36 26.08118 -80.07856 30140 ft 448 kts 303°
2026-04-26 13:36 26.09770 -80.10815 29970 ft 445 kts 303°
2026-04-26 13:37 26.11416 -80.13760 29837 ft 446 kts 304°
2026-04-26 13:37 26.13253 -80.16554 29578 ft 443 kts 311°
2026-04-26 13:37 26.15380 -80.19025 29317 ft 441 kts 317°
2026-04-26 13:37 26.17741 -80.21157 29061 ft 439 kts 324°
2026-04-26 13:38 26.20344 -80.22970 28799 ft 438 kts 330°
2026-04-26 13:38 26.23042 -80.24457 28546 ft 437 kts 333°
2026-04-26 13:38 26.25800 -80.25908 28286 ft 435 kts 334°
2026-04-26 13:38 26.28545 -80.27337 28027 ft 434 kts 334°
2026-04-26 13:39 26.31288 -80.28762 27767 ft 433 kts 334°
2026-04-26 13:39 26.34014 -80.30180 27509 ft 431 kts 334°
2026-04-26 13:39 26.36724 -80.31592 27252 ft 430 kts 334°
2026-04-26 13:39 26.39462 -80.33021 26991 ft 428 kts 334°
2026-04-26 13:40 26.42124 -80.34411 26737 ft 426 kts 334°
2026-04-26 13:40 26.44839 -80.35830 26496 ft 425 kts 334°
2026-04-26 13:40 26.47507 -80.37225 26267 ft 424 kts 334°
2026-04-26 13:40 26.50163 -80.38615 26038 ft 423 kts 334°
2026-04-26 13:41 26.52827 -80.40010 25806 ft 421 kts 334°
2026-04-26 13:41 26.55484 -80.41402 25564 ft 420 kts 334°
2026-04-26 13:41 26.58133 -80.42792 25286 ft 418 kts 334°
2026-04-26 13:41 26.60780 -80.44163 25003 ft 417 kts 335°
2026-04-26 13:42 26.63450 -80.45405 24721 ft 415 kts 338°
2026-04-26 13:42 26.66134 -80.46532 24444 ft 414 kts 338°
2026-04-26 13:42 26.68842 -80.47652 24160 ft 412 kts 338°
2026-04-26 13:42 26.71526 -80.48758 23879 ft 411 kts 338°
2026-04-26 13:43 26.74241 -80.49879 23593 ft 409 kts 338°
2026-04-26 13:43 26.76906 -80.50979 23314 ft 408 kts 338°
2026-04-26 13:43 26.79573 -80.52081 23032 ft 407 kts 338°
2026-04-26 13:43 26.82217 -80.53175 22758 ft 405 kts 338°
2026-04-26 13:44 26.84884 -80.54278 22484 ft 403 kts 338°
2026-04-26 13:44 26.87510 -80.55370 22213 ft 403 kts 338°
2026-04-26 13:44 26.90134 -80.56466 21942 ft 402 kts 338°
2026-04-26 13:44 26.92740 -80.57556 21673 ft 401 kts 338°
2026-04-26 13:45 26.95373 -80.58659 21395 ft 399 kts 338°
2026-04-26 13:45 26.97966 -80.59748 21125 ft 399 kts 338°
2026-04-26 13:45 27.00568 -80.60841 20854 ft 397 kts 338°
2026-04-26 13:45 27.03140 -80.61922 20587 ft 396 kts 338°
2026-04-26 13:46 27.05741 -80.63016 20314 ft 395 kts 338°
2026-04-26 13:46 27.08323 -80.64103 20043 ft 395 kts 338°
2026-04-26 13:46 27.10887 -80.65183 19776 ft 394 kts 338°
2026-04-26 13:46 27.13456 -80.66265 19504 ft 392 kts 338°
2026-04-26 13:47 27.16034 -80.67352 19234 ft 392 kts 338°
2026-04-26 13:47 27.18562 -80.68418 18965 ft 390 kts 338°
2026-04-26 13:47 27.21119 -80.69498 18693 ft 390 kts 338°
2026-04-26 13:47 27.23673 -80.70576 18415 ft 389 kts 338°
2026-04-26 13:48 27.26199 -80.71641 18148 ft 388 kts 338°
2026-04-26 13:48 27.28717 -80.72705 17881 ft 387 kts 338°
2026-04-26 13:48 27.31231 -80.73768 17611 ft 387 kts 338°
2026-04-26 13:48 27.33758 -80.74837 17342 ft 385 kts 338°
2026-04-26 13:49 27.36286 -80.75909 17077 ft 384 kts 338°
2026-04-26 13:49 27.38765 -80.76959 16831 ft 383 kts 338°
2026-04-26 13:49 27.41260 -80.78017 16567 ft 382 kts 338°
2026-04-26 13:49 27.43743 -80.79071 16302 ft 380 kts 338°
2026-04-26 13:50 27.46214 -80.80120 16043 ft 379 kts 338°
2026-04-26 13:50 27.48683 -80.81168 15781 ft 377 kts 338°
2026-04-26 13:50 27.51134 -80.82209 15518 ft 376 kts 338°
2026-04-26 13:50 27.53608 -80.83260 15252 ft 375 kts 338°
2026-04-26 13:51 27.56035 -80.84312 15017 ft 374 kts 336°
2026-04-26 13:51 27.58421 -80.85483 14967 ft 374 kts 334°
2026-04-26 13:51 27.60778 -80.86693 14964 ft 374 kts 334°
2026-04-26 13:51 27.63175 -80.87936 14961 ft 372 kts 333°
2026-04-26 13:52 27.65504 -80.89153 14787 ft 368 kts 334°
2026-04-26 13:52 27.67815 -80.90365 14547 ft 365 kts 334°
2026-04-26 13:52 27.70128 -80.91579 14307 ft 364 kts 333°
2026-04-26 13:52 27.72402 -80.92775 14070 ft 363 kts 333°
2026-04-26 13:53 27.74700 -80.93984 13829 ft 361 kts 333°
2026-04-26 13:53 27.76993 -80.95192 13587 ft 360 kts 333°
2026-04-26 13:53 27.79240 -80.96377 13349 ft 359 kts 333°
2026-04-26 13:53 27.81504 -80.97570 13109 ft 357 kts 333°
2026-04-26 13:54 27.83781 -80.98772 12868 ft 357 kts 333°
2026-04-26 13:54 27.86009 -80.99950 12632 ft 357 kts 333°
2026-04-26 13:54 27.88264 -81.01141 12392 ft 356 kts 333°
2026-04-26 13:55 27.92738 -81.03496 11848 ft 349 kts 335°
2026-04-26 13:55 27.94226 -81.04199 11562 ft 335 kts 337°
2026-04-26 13:55 27.98956 -81.06208 11012 ft 291 kts 337°
2026-04-26 13:56 28.00811 -81.06993 10771 ft 282 kts 337°
2026-04-26 13:56 28.02651 -81.07774 10565 ft 278 kts 337°
2026-04-26 13:56 28.04447 -81.08535 10381 ft 273 kts 337°
2026-04-26 13:56 28.06212 -81.09282 10204 ft 269 kts 337°
2026-04-26 13:57 28.07983 -81.10035 9984 ft 270 kts 337°
2026-04-26 13:57 28.09722 -81.10789 9850 ft 270 kts 337°
2026-04-26 13:57 28.11516 -81.11580 9786 ft 279 kts 336°
2026-04-26 13:57 28.13353 -81.12391 9721 ft 281 kts 337°
2026-04-26 13:58 28.15174 -81.13196 9662 ft 281 kts 336°
2026-04-26 13:58 28.16997 -81.13999 9611 ft 280 kts 336°
2026-04-26 13:58 28.18819 -81.14802 9559 ft 279 kts 336°
2026-04-26 13:58 28.20632 -81.15602 9510 ft 279 kts 336°
2026-04-26 13:59 28.22446 -81.16402 9401 ft 279 kts 336°
2026-04-26 13:59 28.24262 -81.17201 9273 ft 278 kts 336°
2026-04-26 13:59 28.26066 -81.17981 9100 ft 278 kts 339°
2026-04-26 14:00 28.31867 -81.18657 8345 ft 279 kts 356°
2026-04-26 14:00 28.33800 -81.18677 8245 ft 272 kts 356°
2026-04-26 14:00 28.35050 -81.18691 8192 ft 266 kts 356°
2026-04-26 14:01 28.37467 -81.18729 8042 ft 258 kts 356°
2026-04-26 14:01 28.39266 -81.18758 7950 ft 251 kts 356°
2026-04-26 14:01 28.40995 -81.18778 7722 ft 250 kts 356°
2026-04-26 14:01 28.42733 -81.18792 7477 ft 248 kts 356°
2026-04-26 14:02 28.44461 -81.18806 7229 ft 249 kts 356°
2026-04-26 14:02 28.46207 -81.18821 6978 ft 249 kts 356°
2026-04-26 14:02 28.47948 -81.18835 6728 ft 250 kts 356°
2026-04-26 14:02 28.49703 -81.18848 6510 ft 249 kts 356°
2026-04-26 14:03 28.51410 -81.18862 6271 ft 244 kts 356°
2026-04-26 14:03 28.53112 -81.18876 6078 ft 242 kts 356°
2026-04-26 14:03 28.54792 -81.18893 5835 ft 243 kts 356°
2026-04-26 14:03 28.56492 -81.18924 5594 ft 243 kts 356°
2026-04-26 14:04 28.58184 -81.18958 5352 ft 242 kts 356°
2026-04-26 14:04 28.59860 -81.18993 5105 ft 241 kts 356°
2026-04-26 14:04 28.61548 -81.19027 4860 ft 239 kts 356°
2026-04-26 14:04 28.63221 -81.19062 4600 ft 239 kts 356°
2026-04-26 14:05 28.64877 -81.19095 4315 ft 240 kts 356°
2026-04-26 14:05 28.66566 -81.19128 3995 ft 239 kts 356°
2026-04-26 14:05 28.68205 -81.19163 3685 ft 233 kts 354°
2026-04-26 14:05 28.69725 -81.19616 3369 ft 223 kts 323°
2026-04-26 14:06 28.70722 -81.20885 3075 ft 212 kts 289°
2026-04-26 14:06 28.70933 -81.22466 2981 ft 196 kts 268°
2026-04-26 14:06 28.70847 -81.23962 2994 ft 181 kts 264°
2026-04-26 14:06 28.70709 -81.25390 3000 ft 180 kts 260°
2026-04-26 14:07 28.70185 -81.26653 2969 ft 181 kts 224°
2026-04-26 14:07 28.69083 -81.27396 2983 ft 184 kts 206°
2026-04-26 14:07 28.67900 -81.27937 2979 ft 184 kts 204°
2026-04-26 14:07 28.66687 -81.28455 2977 ft 184 kts 203°
2026-04-26 14:08 28.65477 -81.28966 2977 ft 184 kts 203°
2026-04-26 14:08 28.64277 -81.29477 2979 ft 184 kts 203°
2026-04-26 14:08 28.63072 -81.29987 2981 ft 186 kts 203°
2026-04-26 14:08 28.61857 -81.30505 2980 ft 185 kts 203°
2026-04-26 14:09 28.60656 -81.31019 2977 ft 184 kts 203°
2026-04-26 14:09 28.59460 -81.31523 2929 ft 180 kts 201°
2026-04-26 14:09 28.58285 -81.31988 2743 ft 178 kts 201°
2026-04-26 14:09 28.57077 -81.32360 2502 ft 180 kts 195°
2026-04-26 14:10 28.55844 -81.32631 2210 ft 179 kts 191°
2026-04-26 14:10 28.54646 -81.32754 2105 ft 164 kts 184°
2026-04-26 14:10 28.53526 -81.32752 1890 ft 160 kts 183°
2026-04-26 14:10 28.52416 -81.32749 1633 ft 157 kts 183°
2026-04-26 14:11 28.50309 -81.32739 1219 ft 146 kts 182°
2026-04-26 14:11 28.49297 -81.32732 1023 ft 144 kts 182°
2026-04-26 14:11 28.48287 -81.32723 824 ft 142 kts 182°
2026-04-26 14:12 28.47309 -81.32718 627 ft 141 kts 182°
2026-04-26 14:12 28.46326 -81.32707 433 ft 138 kts 182°
2026-04-26 14:12 28.45369 -81.32701 247 ft 137 kts 182°
2026-04-26 14:12 28.44430 -81.32697 117 ft 130 kts 182°
2026-04-26 14:13 28.43358 -81.32688 113 ft 52 kts 178°
2026-04-26 14:13 28.43117 -81.32632 113 ft 25 kts 142°
2026-04-26 14:13 28.43055 -81.32480 113 ft 19 kts 90°
2026-04-26 14:14 28.43057 -81.32327 113 ft 19 kts 89°
2026-04-26 14:14 28.43058 -81.32175 113 ft 19 kts 90°
2026-04-26 14:14 28.43059 -81.32020 113 ft 17 kts 90°
2026-04-26 14:14 28.43035 -81.31905 113 ft 15 kts 121°
2026-04-26 14:15 28.42978 -81.31801 113 ft 15 kts 122°
2026-04-26 14:15 28.42932 -81.31719 113 ft 11 kts 124°
2026-04-26 14:15 28.42897 -81.31662 113 ft 3 kts 125°
2026-04-26 14:15 28.42882 -81.31636 113 ft 4 kts 124°
2026-04-26 14:16 28.42874 -81.31624 113 ft 0 kts 124°